Weather History for KTYR - November, 2011

Change the Weather History Date:

Wednesday, November 9, 2011

  Actual Average Record
Temperature  
Mean Temperature 52 °F 58 °F  
Max Temperature 61 °F 68 °F 88 °F (1942)
Min Temperature 43 °F 48 °F 21 °F (1901)
Degree Days  
Heating Degree Days 13 8  
Month to date heating degree days 52 58  
Since 1 July heating degree days 118 135  
Cooling Degree Days 0 1  
Month to date cooling degree days 14 11  
Year to date cooling degree days 3635 2404  
Growing Degree Days 2 (Base 50)    
Moisture  
Dew Point 38 °F    
Average Humidity 64    
Maximum Humidity 89    
Minimum Humidity 39    
Precipitation  
Precipitation 0.00 in 0.14 in 3.80 in (1990)
Month to date precipitation 0.82 1.31  
Year to date precipitation 16.70 38.76  
Snow  
Snow 0.00 in - - ()
Month to date snowfall 0.0  
Since 1 July snowfall 0.0  
Since 1 September snowfall 0.0  
Snow Depth 0.00 in    
Sea Level Pressure  
Sea Level Pressure 30.27 in    
Wind  
Wind Speed 10 mph (NNW)    
Max Wind Speed 24 mph    
Max Gust Speed 30 mph    
Visibility 10 miles    
Events      
T = Trace of Precipitation, MM = Missing Value Source: NWS Daily Summary

Daily Weather History Graph

Daily Weather History Graph

Search for Another Location

Airport or City:

Trip Planner

Search our weather history database for the weather conditions in past years. The results will help you decide how hot, cold, wet, or windy it might be!

Date:

Astronomy

Nov. 09, 2011 Rise Set
Actual Time 6:45 AM CST 5:25 PM CST
Civil Twilight 6:19 AM CST 5:50 PM CST
Nautical Twilight 5:50 AM CST 6:20 PM CST
Astronomical Twilight 5:21 AM CST 6:48 PM CST
Moon 4:38 PM CST (11/9) 5:42 AM CST (11/9)
Length of Visible Light 11h 31m
Length of Day
10h 39m
Waxing Gibbous, 99% of the Moon is Illuminated
Nov 9
Waxing Gibbous
Nov 10
Full
Nov 18
Last Quarter
Nov 25
New
Dec 2
First Quarter

Hourly Weather History & Observations

Time (CST) Temp. Windchill Dew Point Humidity Pressure Visibility Wind Dir Wind Speed Gust Speed Precip Events Conditions
12:53 AM 53.1 °F - 48.9 °F 86% 30.11 in 10.0 mi NW 6.9 mph - N/A   Clear
1:53 AM 51.1 °F - 46.9 °F 86% 30.12 in 10.0 mi NW 6.9 mph - N/A   Clear
2:53 AM 50.0 °F - 45.0 °F 83% 30.13 in 10.0 mi NNW 9.2 mph - N/A   Clear
3:53 AM 48.9 °F - 41.0 °F 74% 30.15 in 10.0 mi NNW 11.5 mph - N/A   Clear
4:53 AM 46.9 °F - 39.9 °F 77% 30.18 in 10.0 mi NW 11.5 mph - N/A   Clear
5:53 AM 46.0 °F 41.4 °F 39.9 °F 79% 30.20 in 10.0 mi NW 9.2 mph - N/A   Clear
6:53 AM 45.0 °F 39.7 °F 39.0 °F 80% 30.23 in 10.0 mi NNW 10.4 mph - N/A   Clear
7:53 AM 46.9 °F - 39.0 °F 74% 30.27 in 10.0 mi NNW 10.4 mph - N/A   Clear
8:53 AM 48.0 °F - 37.9 °F 68% 30.29 in 10.0 mi North 13.8 mph 25.3 mph N/A   Clear
9:53 AM 50.0 °F - 37.9 °F 63% 30.31 in 10.0 mi North 13.8 mph 24.2 mph N/A   Clear
10:53 AM 54.0 °F - 39.0 °F 57% 30.31 in 10.0 mi North 17.3 mph 25.3 mph N/A   Clear
11:53 AM 57.2 °F - 39.2 °F 51% 30.30 in 10.0 mi North 12.7 mph 23.0 mph N/A   Clear
12:53 PM 57.9 °F - 37.0 °F 46% 30.28 in 10.0 mi North 17.3 mph 24.2 mph N/A   Clear
1:53 PM 60.1 °F - 36.0 °F 41% 30.27 in 10.0 mi North 18.4 mph 28.8 mph N/A   Clear
2:53 PM 60.1 °F - 36.0 °F 41% 30.27 in 10.0 mi North 13.8 mph 21.9 mph N/A   Clear
3:53 PM 59.0 °F - 35.1 °F 41% 30.27 in 10.0 mi North 17.3 mph 23.0 mph N/A   Clear
4:53 PM 57.9 °F - 34.0 °F 41% 30.27 in 10.0 mi North 8.1 mph - N/A   Clear
5:53 PM 55.0 °F - 34.0 °F 45% 30.30 in 10.0 mi NNW 6.9 mph - N/A   Clear
6:53 PM 51.1 °F - 35.1 °F 54% 30.32 in 10.0 mi NW 3.5 mph - N/A   Clear
7:53 PM 48.9 °F - 36.0 °F 61% 30.33 in 10.0 mi NNW 5.8 mph - N/A   Clear
8:53 PM 48.9 °F - 35.1 °F 59% 30.34 in 10.0 mi North 5.8 mph - N/A   Clear
9:53 PM 48.0 °F - 36.0 °F 63% 30.36 in 10.0 mi North 5.8 mph - N/A   Clear
10:53 PM 46.9 °F - 35.1 °F 63% 30.38 in 10.0 mi NNW 4.6 mph - N/A   Clear
11:53 PM 43.0 °F 41.3 °F 37.0 °F 80% 30.38 in 10.0 mi NNW 3.5 mph - N/A   Clear